Temperature
26 25 24 23 22 21 21 21 20 20 20 20 20 20 19 19 19 19 19 19 19 19 19 19 18 18 18 18 18 18 18 18 19 18 19 19 19 19 19 19 19 19 19
26 25 24 23 22 21 21 21 20 20 20 20 20 20 20 19 19 19 19 19 19 19 19 19 19 19 19 18 18 18 18 19 18 18 18 19 19 19 20 19 19 19 19
27 25 24 24 23 22 21 21 21 20 20 20 20 20 20 19 19 19 19 19 19 19 19 19 19 19 19 19 19 19 19 19 19 19 19 19 19 19 20 20 20 19 19
27 26 25 24 23 22 22 21 21 21 20 20 20 20 20 20 20 20 19 19 19 19 19 19 19 19 19 19 19 19 19 19 19 19 19 19 19 19 19 19 20 19 19
28 26 25 24 24 23 22 21 21 20 20 20 20 20 20 20 20 20 19 19 19 19 19 19 19 19 19 19 19 19 19 19 19 19 19 19 19 19 19 19 19 19 19
28 27 26 25 24 23 22 21 21 21 20 20 20 20 20 20 20 20 20 19 19 19 19 19 19 19 19 19 19 19 19 19 19 19 19 19 19 19 19 19 19 19 19
29 28 26 25 24 23 23 22 21 21 21 20 20 20 20 20 20 20 19 19 19 19 19 19 19 19 19 19 19 19 19 19 19 19 19 19 19 19 19 19 19 19 19
29 28 27 25 24 24 23 22 21 21 21 20 20 20 20 20 20 20 20 20 20 19 19 19 19 19 19 19 19 19 19 19 19 19 19 19 19 19 19 19 19 18 18
29 28 27 26 25 24 23 22 22 21 21 20 20 20 20 20 20 20 20 20 20 20 20 19 19 19 19 19 19 19 19 18 19 19 19 19 19 19 19 18 18 18 18
29 28 27 26 25 24 23 23 22 21 21 20 20 20 20 20 20 20 20 20 20 20 20 19 19 19 19 19 19 19 19 18 18 18 18 18 18 18 18 18 18 18 18
29 28 27 26 25 24 24 23 22 21 21 20 20 20 19 19 20 19 19 19 19 19 19 19 19 19 19 19 19 19 18 18 18 18 18 18 18 18 18 18 18 18 18
27 27 26 25 25 24 24 23 22 21 21 20 20 19 19 19 19 19 19 19 19 19 19 19 19 19 19 18 18 18 18 18 18 18 18 18 18 18 18 18 18 18 18
26 26 25 24 24 24 23 23 22 21 21 20 20 19 19 19 19 19 19 19 19 19 19 18 18 18 18 18 18 18 18 18 18 18 18 18 18 18 18 18 18 18 17
25 25 24 23 23 23 22 22 21 21 21 20 20 19 19 19 19 19 18 18 18 18 18 18 18 18 18 18 18 18 18 18 18 17 17 17 17 17 17 17 17 17 17
25 24 23 22 22 22 21 21 21 20 20 20 19 19 19 19 18 18 18 18 18 18 18 18 18 18 18 18 18 17 17 17 17 17 17 17 17 17 17 17 17 17 17
23 22 22 21 21 20 20 20 20 20 20 19 19 19 19 18 18 18 18 18 18 18 18 18 17 17 17 17 17 17 17 17 17 17 17 17 16 17 17 17 16 16 16
22 21 21 20 20 20 20 19 19 19 19 19 19 18 18 18 18 18 18 18 17 17 17 17 17 17 17 17 17 17 17 17 16 16 16 16 16 16 16 16 16 16 16
21 20 20 20 19 19 19 19 18 19 18 18 18 18 18 18 17 17 17 17 17 17 17 17 17 17 17 17 17 17 16 16 16 16 16 16 16 16 16 16 15 15 15
20 20 19 19 19 19 18 18 18 18 18 18 18 18 17 17 17 17 17 17 17 17 17 17 17 16 16 16 16 16 16 16 16 16 15 15 15 15 15 15 15 15 15
20 19 19 19 18 18 18 18 17 17 17 17 17 17 17 17 17 17 17 17 16 16 16 16 16 16 16 16 16 16 16 16 15 15 15 15 15 15 15 15 14 14 14
19 19 18 18 18 18 17 17 17 17 17 17 17 17 17 17 17 16 16 16 16 16 16 16 16 16 16 16 16 15 15 15 15 15 15 15 15 15 14 14 14 14 14
18 18 18 17 17 17 17 16 16 16 16 16 16 16 16 16 16 16 16 16 16 16 16 15 15 15 15 15 15 15 15 15 14 14 14 14 14 14 14 14 14 14 13
18 17 17 17 16 16 16 16 15 15 16 16 16 16 16 16 16 16 15 15 15 15 15 15 15 15 15 15 15 15 14 14 14 14 14 14 14 14 13 13 13 13 13
17 17 16 16 16 16 15 15 15 15 15 15 15 15 15 15 15 15 15 15 15 15 15 15 15 15 14 14 14 14 14 14 13 13 13 13 13 13 13 13 13 13 12
16 16 16 15 15 15 15 15 15 15 15 14 15 15 15 14 14 14 14 14 14 14 14 14 14 14 14 14 14 14 14 13 13 13 13 13 13 12 12 12 12 12 12
15 15 15 15 14 14 14 14 14 14 14 14 14 14 14 14 14 14 14 14 14 14 14 14 14 14 14 13 13 13 13 13 13 12 12 12 12 12 12 12 12 12 11
Wind_Speed
12 12 12 13 12 10 9 8 7 7 6 5 5 5 5 5 5 5 6 7 6 6 4 3 5 4 4 4 4 3 4 4 3 2 2 3 4 5 4 4 4 4 6
14 13 12 12 12 11 10 9 8 8 7 5 4 4 5 5 5 4 6 7 7 6 7 5 5 5 4 4 4 4 3 4 3 2 2 1 2 3 5 5 5 5 4
16 15 14 13 13 13 12 10 9 8 8 6 4 4 4 4 4 5 6 6 7 6 4 5 5 4 4 4 5 5 5 3 3 3 2 2 2 2 2 4 4 4 3
15 15 14 14 13 13 13 10 9 8 7 7 6 6 5 5 5 6 6 7 7 7 7 6 6 5 4 5 6 6 4 4 4 3 3 3 2 1 1 2 2 4 4
15 16 15 14 13 13 13 11 9 8 7 7 6 6 5 4 4 5 6 7 6 7 7 7 6 6 5 6 6 4 5 4 4 3 3 3 3 4 3 2 2 3 3
13 15 14 12 11 12 12 12 10 8 8 7 6 6 6 5 5 5 6 6 5 6 8 8 7 7 6 6 6 5 6 4 4 3 3 2 2 3 3 3 3 3 3
12 14 15 14 12 11 11 12 11 9 9 8 6 6 6 5 5 5 6 6 5 6 7 7 6 6 6 6 6 6 6 5 5 4 4 3 3 3 2 3 3 3 3
10 13 14 14 13 12 11 11 11 10 9 9 7 6 6 5 5 5 5 5 4 5 6 7 6 6 6 6 5 5 6 6 6 7 5 4 4 3 3 3 3 3 3
9 10 12 13 13 12 11 11 11 10 10 9 8 7 7 6 5 5 5 4 4 5 6 6 7 6 6 5 5 5 6 5 6 6 6 5 4 4 4 3 3 3 4
8 8 10 11 12 12 10 10 10 10 9 8 8 8 7 6 5 5 5 5 4 4 5 5 6 6 6 6 5 5 5 5 5 5 5 5 4 4 3 4 4 3 4
5 6 7 7 8 10 11 10 9 10 10 9 8 6 7 6 6 5 4 4 4 4 4 4 5 5 5 6 5 6 5 5 5 6 5 5 5 4 4 4 4 4 3
5 5 6 5 5 6 8 9 9 9 9 8 7 7 6 6 6 6 5 4 4 4 4 4 4 5 6 5 6 6 6 6 5 5 4 4 5 5 4 4 5 4 4
6 6 6 4 3 4 4 5 6 7 8 8 8 7 7 6 6 5 5 4 4 4 4 4 4 4 5 5 5 5 4 4 4 3 3 4 4 4 4 4 5 5 5
6 5 5 4 3 3 3 3 3 3 5 6 7 7 7 6 6 5 5 5 5 4 4 4 4 4 4 3 3 3 4 4 4 3 3 3 4 4 5 5 5 5 4
5 6 6 4 4 3 3 3 2 2 3 4 5 6 6 5 5 5 5 5 5 5 4 4 4 4 4 3 3 4 5 4 4 3 3 3 4 4 4 4 3 3 4
3 5 5 5 4 3 2 2 2 1 2 3 3 3 4 5 5 5 4 4 4 4 4 4 3 3 4 3 3 3 3 3 4 3 3 4 4 5 5 5 5 4 5
3 4 4 4 3 2 2 2 1 2 1 1 2 3 3 4 4 4 4 4 4 3 3 3 3 2 2 2 1 2 3 3 3 3 3 4 4 2 3 3 5 5 6
3 3 2 2 1 1 1 2 1 1 2 2 2 2 2 3 3 3 3 3 2 3 3 2 2 2 3 3 2 2 3 3 3 3 4 4 3 3 2 3 4 4 4
3 2 2 2 1 1 1 1 1 0 1 1 1 2 2 3 3 3 3 3 3 3 4 3 3 2 2 4 4 3 3 3 3 4 3 3 3 3 3 3 3 3 4
3 2 1 2 1 1 1 1 2 1 1 1 1 1 2 3 3 3 2 2 3 4 3 3 3 3 3 5 5 4 3 3 3 3 2 1 2 2 2 2 3 4 4
2 1 1 2 1 1 1 1 1 1 1 1 1 1 1 2 3 2 2 2 2 3 3 3 3 3 4 6 7 6 3 3 3 3 2 2 2 1 2 3 4 5 4
1 1 1 1 1 1 1 1 1 1 1 0 1 1 1 2 2 2 2 2 2 3 3 4 4 3 3 5 7 8 6 4 3 2 1 1 1 2 3 3 4 5 4
2 1 1 1 1 0 1 1 1 1 1 1 0 1 1 1 1 1 2 2 2 3 3 3 3 2 2 3 5 6 5 3 2 2 0 1 3 3 4 5 6 4 3
2 2 1 1 1 1 1 1 1 0 0 0 0 1 1 1 1 1 1 1 1 1 1 2 1 1 2 2 2 1 1 1 1 1 0 2 4 4 4 3 3 3 3
2 2 2 1 1 0 0 1 0 0 0 1 1 1 1 2 2 1 0 0 1 1 2 1 1 1 1 2 3 2 1 0 1 0 1 1 1 1 2 1 1 1 1
3 2 2 3 2 1 1 1 1 0 1 1 1 2 1 1 2 3 2 5 3 3 3 2 1 1 3 5 5 4 3 2 1 1 2 2 2 2 2 1 1 1 1
Wind_Direction
162 160 162 157 156 156 157 161 164 156 159 164 171 173 168 165 156 154 153 161 175 180 184 175 160 176 184 183 176 169 186 205 218 220 249 255 231 209 205 215 218 212 206
164 164 169 164 164 164 166 165 169 167 170 172 180 177 171 170 164 160 150 171 180 183 184 183 178 175 181 182 184 187 204 219 210 205 219 252 268 241 219 201 209 214 208
169 169 172 173 171 171 173 173 172 168 176 169 175 180 164 175 161 156 160 173 182 188 187 176 183 180 186 183 190 199 206 213 227 222 195 204 231 261 261 224 206 201 208
169 170 173 175 178 175 173 168 166 168 174 173 178 183 181 187 180 171 169 174 186 188 190 187 183 193 196 191 202 198 200 207 224 237 227 226 219 210 281 280 251 216 212
171 170 174 174 177 173 169 166 164 167 171 179 184 188 190 193 181 169 167 175 183 192 193 186 186 195 197 198 209 196 211 216 223 227 226 232 220 220 222 250 264 264 237
171 169 169 165 171 169 167 166 164 166 171 181 185 190 195 194 191 181 174 186 191 195 196 191 191 195 199 201 203 200 215 221 231 246 245 233 229 239 234 234 242 250 259
168 168 167 167 169 170 170 168 167 172 176 181 190 191 196 195 201 194 186 194 200 194 192 195 189 199 203 204 204 205 216 216 222 235 248 247 243 238 229 233 247 265 272
164 166 167 168 171 173 172 168 168 173 178 183 190 190 190 199 205 205 208 202 208 200 187 184 184 195 201 211 204 211 219 213 218 231 232 244 249 247 237 229 225 250 266
158 161 163 169 170 174 173 171 168 173 181 187 185 189 193 202 201 195 206 215 210 212 187 181 187 198 204 212 208 221 225 216 218 229 230 236 246 250 249 240 226 221 246
156 154 159 169 172 176 173 168 167 173 179 184 189 193 196 199 201 208 201 207 214 213 183 185 189 198 204 209 213 222 227 223 228 229 233 238 247 251 251 247 241 227 228
137 139 144 155 165 169 173 173 171 172 177 183 187 192 189 195 202 208 210 204 213 206 193 195 196 203 207 206 211 223 223 222 228 233 231 233 241 252 257 255 253 245 232
116 114 121 133 144 157 169 173 176 174 175 176 179 188 188 189 197 203 206 206 203 206 194 194 204 216 216 208 212 222 224 224 225 227 231 238 244 248 258 262 261 253 236
98 101 105 110 131 142 144 155 167 175 179 177 181 186 194 194 195 196 194 200 204 204 202 197 210 222 226 218 215 217 227 227 221 220 228 240 246 249 254 253 261 264 258
96 99 103 99 94 99 113 129 149 173 182 176 183 186 192 195 195 196 195 195 202 203 206 208 209 216 224 224 219 218 228 231 228 224 226 242 248 247 247 246 253 262 269
100 90 87 73 73 80 93 108 135 162 167 168 183 187 187 191 197 200 199 198 200 210 209 215 213 205 209 221 225 228 229 230 231 226 215 230 235 231 238 248 249 256 263
91 94 90 81 66 66 74 82 119 138 155 169 169 166 184 190 194 197 200 205 204 208 209 209 209 217 221 198 206 223 231 233 232 234 228 232 231 228 221 231 239 240 242
92 92 95 92 78 60 85 91 83 126 140 155 158 166 183 192 197 205 200 208 208 200 204 203 205 205 210 214 206 226 223 233 240 241 247 251 256 250 245 235 231 242 243
106 92 91 96 98 70 61 104 115 141 154 160 160 169 186 190 194 198 198 192 185 184 199 211 196 196 218 197 198 233 235 240 239 239 236 235 254 271 275 271 251 248 256
112 118 134 131 108 97 78 109 122 157 191 179 167 182 190 199 196 191 188 186 191 192 201 197 201 207 194 180 177 191 242 235 243 246 248 237 233 260 267 265 262 264 275
97 103 141 132 119 107 120 149 168 185 231 234 218 224 211 199 195 194 195 202 205 208 211 195 200 198 193 183 183 196 237 241 241 234 225 213 217 249 283 262 265 264 270
73 81 156 151 126 114 115 171 233 253 273 277 244 230 225 202 189 186 188 189 206 202 209 205 216 213 199 181 185 196 222 246 249 244 227 180 152 188 251 251 253 259 272
3 344 49 98 104 140 156 218 286 327 341 293 202 195 214 239 198 164 183 193 206 215 214 218 225 224 199 187 195 200 218 259 265 256 185 158 196 265 270 254 245 259 270
317 308 336 3 53 115 190 219 267 332 325 332 298 224 221 198 154 176 188 193 200 231 228 222 224 207 178 169 181 194 212 242 264 290 144 196 235 261 263 246 244 243 246
323 310 288 266 290 296 280 248 238 285 179 236 264 218 194 195 169 200 209 209 197 225 238 228 225 195 121 101 112 165 193 216 225 299 287 239 245 254 254 255 239 234 236
348 344 340 306 276 277 304 277 295 50 93 250 256 244 220 209 183 161 128 146 79 203 213 242 203 184 175 163 156 157 172 195 94 58 272 267 258 244 245 242 251 257 263
359 348 330 309 299 303 288 292 316 305 234 248 257 257 247 222 184 162 123 65 73 97 112 109 106 93 121 150 151 147 146 166 160 171 248 258 266 269 269 278 276 265 284
Height
1488 1491 1494 1497 1499 1501 1503 1505 1507 1509 1511 1513 1514 1516 1518 1520 1522 1524 1526 1527 1529 1531 1533 1535 1537 1538 1540 1542 1544 1545 1546 1548 1549 1551 1551 1552 1552 1553 1553 1554 1555 1555 1556
1485 1489 1492 1495 1497 1499 1502 1504 1506 1508 1510 1512 1514 1516 1518 1520 1522 1524 1525 1527 1529 1531 1533 1534 1536 1537 1539 1540 1542 1544 1545 1546 1548 1549 1550 1550 1551 1551 1551 1552 1553 1553 1554
1480 1485 1489 1492 1495 1497 1499 1502 1504 1507 1509 1511 1513 1516 1518 1520 1522 1523 1524 1526 1528 1530 1532 1533 1535 1536 1538 1539 1541 1542 1543 1544 1546 1547 1549 1549 1549 1549 1549 1550 1550 1551 1551
1476 1481 1485 1489 1492 1495 1497 1500 1502 1505 1507 1509 1511 1514 1516 1518 1520 1521 1523 1525 1527 1529 1530 1532 1533 1535 1536 1538 1539 1540 1542 1543 1544 1545 1546 1547 1547 1548 1547 1548 1548 1548 1548
1472 1477 1481 1485 1489 1493 1495 1498 1500 1503 1505 1507 1510 1512 1514 1516 1519 1520 1522 1524 1525 1527 1529 1530 1531 1533 1534 1536 1537 1538 1540 1541 1542 1543 1544 1544 1545 1545 1546 1545 1545 1545 1545
1469 1474 1479 1483 1487 1491 1493 1495 1498 1500 1502 1505 1507 1510 1512 1514 1517 1518 1520 1522 1523 1525 1526 1528 1529 1530 1532 1533 1535 1536 1537 1538 1539 1540 1541 1542 1543 1543 1543 1543 1543 1542 1542
1466 1471 1476 1480 1484 1488 1491 1493 1495 1497 1500 1502 1505 1507 1510 1512 1514 1516 1518 1519 1521 1522 1524 1525 1526 1527 1529 1530 1532 1533 1534 1535 1536 1537 1538 1539 1540 1540 1541 1541 1540 1540 1539
1463 1468 1472 1477 1481 1485 1488 1491 1492 1495 1497 1500 1502 1504 1507 1509 1511 1513 1515 1517 1518 1520 1521 1522 1524 1525 1526 1528 1529 1530 1531 1532 1533 1534 1535 1536 1536 1537 1537 1538 1538 1537 1537
1461 1465 1470 1474 1478 1482 1485 1488 1490 1492 1495 1497 1499 1502 1504 1506 1508 1510 1512 1514 1515 1517 1518 1519 1520 1522 1523 1524 1526 1527 1528 1529 1530 1531 1532 1532 1533 1533 1533 1534 1534 1535 1534
1460 1463 1468 1472 1476 1480 1483 1486 1488 1490 1492 1495 1497 1499 1501 1503 1505 1507 1509 1510 1512 1514 1515 1516 1517 1519 1520 1521 1523 1523 1524 1525 1526 1527 1528 1528 1529 1530 1530 1530 1531 1531 1531
1460 1463 1467 1471 1475 1478 1481 1484 1487 1489 1490 1492 1494 1496 1498 1500 1502 1504 1506 1507 1509 1511 1512 1513 1514 1516 1517 1518 1519 1520 1521 1521 1522 1523 1524 1525 1526 1526 1526 1527 1527 1527 1527
1460 1464 1467 1471 1474 1477 1480 1482 1485 1486 1488 1490 1492 1493 1495 1497 1499 1500 1502 1504 1505 1507 1509 1510 1511 1512 1514 1514 1515 1516 1517 1518 1519 1520 1520 1521 1522 1522 1523 1523 1523 1523 1524
1461 1464 1467 1471 1473 1475 1478 1480 1482 1484 1486 1487 1489 1491 1492 1494 1495 1497 1498 1500 1502 1504 1505 1507 1508 1509 1510 1511 1512 1513 1514 1514 1515 1516 1517 1517 1518 1518 1518 1519 1519 1519 1519
1463 1465 1468 1471 1473 1474 1476 1478 1480 1482 1484 1485 1486 1487 1489 1491 1492 1494 1496 1497 1499 1501 1502 1503 1505 1506 1507 1508 1508 1509 1510 1511 1512 1512 1513 1514 1514 1514 1515 1514 1515 1515 1515
1464 1466 1468 1471 1473 1474 1475 1477 1478 1480 1481 1482 1484 1485 1486 1488 1490 1491 1493 1494 1496 1497 1499 1500 1502 1502 1503 1504 1504 1505 1506 1507 1507 1508 1509 1509 1510 1510 1510 1510 1510 1510 1510
1465 1466 1468 1470 1471 1473 1474 1475 1477 1478 1479 1480 1481 1482 1484 1485 1487 1488 1490 1491 1492 1494 1495 1496 1498 1499 1499 1500 1501 1502 1503 1503 1504 1504 1505 1505 1506 1506 1506 1506 1506 1506 1506
1464 1465 1468 1469 1470 1472 1473 1474 1475 1476 1477 1478 1479 1480 1482 1483 1484 1486 1487 1488 1489 1490 1491 1493 1494 1495 1496 1497 1498 1498 1499 1499 1500 1501 1501 1502 1502 1502 1501 1501 1501 1501 1501
1464 1465 1467 1468 1470 1471 1472 1473 1474 1475 1475 1476 1477 1478 1479 1480 1482 1483 1483 1484 1485 1486 1487 1488 1490 1491 1492 1493 1494 1494 1495 1496 1496 1497 1497 1498 1497 1497 1497 1497 1496 1496 1497
1463 1465 1467 1467 1469 1470 1471 1471 1472 1471 1473 1474 1474 1475 1476 1477 1478 1479 1480 1481 1482 1483 1484 1485 1485 1486 1487 1489 1490 1491 1491 1491 1492 1493 1493 1493 1493 1493 1493 1493 1492 1491 1492
1463 1464 1465 1466 1467 1468 1469 1470 1470 1470 1470 1471 1472 1473 1474 1474 1475 1476 1477 1478 1479 1480 1481 1481 1482 1483 1484 1484 1486 1487 1487 1488 1488 1488 1489 1489 1489 1489 1489 1489 1488 1487 1487
1463 1463 1464 1464 1465 1466 1467 1467 1468 1468 1468 1468 1469 1470 1471 1472 1472 1473 1473 1474 1475 1476 1478 1478 1479 1480 1480 1481 1482 1483 1483 1483 1484 1484 1484 1485 1484 1484 1484 1484 1484 1483 1483
1462 1462 1463 1463 1463 1464 1464 1465 1465 1465 1465 1466 1466 1466 1467 1468 1469 1470 1470 1471 1472 1473 1474 1475 1476 1477 1478 1478 1478 1479 1480 1480 1480 1480 1480 1480 1481 1481 1480 1480 1480 1480 1479
1460 1461 1461 1461 1462 1462 1462 1462 1463 1463 1463 1463 1463 1464 1465 1465 1466 1467 1467 1468 1469 1470 1472 1473 1473 1474 1475 1475 1476 1476 1477 1477 1477 1477 1477 1477 1477 1477 1476 1476 1476 1476 1475
1458 1459 1459 1460 1460 1460 1460 1460 1461 1460 1460 1460 1460 1461 1461 1463 1464 1465 1465 1466 1467 1468 1469 1470 1471 1471 1472 1472 1473 1473 1474 1474 1474 1474 1474 1474 1474 1473 1473 1473 1473 1472 1472
1457 1457 1457 1458 1458 1458 1458 1458 1458 1458 1458 1458 1458 1458 1459 1461 1461 1462 1464 1464 1465 1466 1467 1467 1468 1468 1469 1469 1470 1470 1471 1471 1471 1471 1470 1470 1470 1470 1470 1470 1470 1470 1470
1455 1455 1456 1456 1456 1455 1455 1455 1455 1455 1456 1455 1456 1457 1458 1458 1459 1460 1461 1462 1463 1464 1464 1465 1466 1466 1467 1467 1467 1467 1467 1468 1468 1467 1466 1466 1467 1467 1467 1467 1467 1467 1467